Location: Azenweiler
(47.8027°N, 9.4096°E)
Time: 02:36:16
(UTC+00:00)

Cosmos 1626 Rocket - Pass Details

Date: 16 March 2026
Orbit: 596 x 624 km, 82.5° (Epoch: 13 April)

Event Time Altitude Azimuth Distance (km) Brightness Sun altitude
Rises 03:22:15 0° 356° (N) 2,900 7.3 -22.4°
Reaches altitude 10° 03:24:38 10° 5° (N) 1,985 6.5 -22.0°
Maximum altitude 03:28:45 39° 74° (ENE) 930 5.0 -21.4°
Drops below altitude 10° 03:32:48 10° 144° (SE) 1,953 6.3 -20.7°
Sets 03:35:07 0° 152° (SSE) 2,847 7.1 -20.4°
